Location: Mohawk View
(42.7837°N, 73.7885°W)
Time: 16:54:59
(UTC+00:00)

Cosmos 1626 - Pass Details

Date: 17 June 2021
Orbit: 489 x 493 km, 82.5° (Epoch: 02 August)

Event Time Altitude Azimuth Distance (km) Brightness Sun altitude
Exits shadow 02:10:48 24° 139° (SE) 1,042 3.1 -13.7°
Maximum altitude 02:12:20 36° 92° (E) 800 2.8 -13.8°
Drops below altitude 10° 02:15:45 10° 25° (NNE) 1,694 5.2 -14.2°
Sets 02:17:58 0° 17° (NNE) 2,582 6.3 -14.5°
